Overview Statistics Trail Chart Weather Telemetry Raw packets
 

This is the latest recevied weather packets stored in our database for station/object WA1TYB-13. If no packets are shown the sender has not sent any weather packets the latest 10 day(s).

<< 7 8 9 10 11 12 13 >>
Time Temp. Humidity Pressure Rain* Wind** Luminosity Snow
1788563253 23.89° C 23% 1013.1 hPa 0 mm - 126 W/m² -
1788562947 23.89° C 23% 1013.3 hPa 0 mm - 297 W/m² -
1788562646 23.89° C 23% 1013 hPa 0 mm - 156 W/m² -
1788562341 23.33° C 22% 1013.1 hPa 0 mm - 139 W/m² -
1788562040 23.89° C 22% 1013.1 hPa 0 mm - 82 W/m² -
1788561735 24.44° C 22% 1013 hPa 0 mm - 131 W/m² -
1788561434 24.44° C 23% 1012.9 hPa 0 mm - 316 W/m² -
1788561129 25° C 21% 1013.3 hPa 0 mm - 358 W/m² -
1788560825 24.44° C 22% 1013.1 hPa 0 mm - 413 W/m² -
1788560521 25° C 22% 1013.2 hPa 0 mm - 171 W/m² -
1788560220 24.44° C 22% 1013.3 hPa 0 mm - 529 W/m² -
1788559915 24.44° C 22% 1013.1 hPa 0 mm - 407 W/m² -
1788559610 24.44° C 21% 1013.1 hPa 0 mm - 477 W/m² -
1788559305 24.44° C 23% 1013.3 hPa 0 mm - 461 W/m² -
1788558999 24.44° C 20% 1013 hPa 0 mm - 443 W/m² -
1788558696 24.44° C 21% 1013 hPa 0 mm - 469 W/m² -
1788558396 24.44° C 24% 1013.2 hPa 0 mm - 551 W/m² -
1788558091 25° C 24% 1013.3 hPa 0 mm - 513 W/m² -
1788557789 24.44° C 24% 1013.2 hPa 0 mm - 578 W/m² -
1788557485 25° C 22% 1013.1 hPa 0 mm - 588 W/m² -
1788557180 24.44° C 26% 1013.2 hPa 0 mm - 599 W/m² -
1788556875 24.44° C 25% 1013.3 hPa 0 mm - 488 W/m² -
1788556575 23.89° C 25% 1013.2 hPa 0 mm - 630 W/m² -
1788556270 23.89° C 27% 1013.2 hPa 0 mm - 583 W/m² -
1788555970 23.33° C 25% 1013 hPa 0 mm - 640 W/m² -

* Rain latest hour (hover to see other rain measurements)
** Current wind speed in m/s (hover to see current wind gust speed)